Regional Weather Roundup
Issued by NWS

Home | Current Version | Previous Version | Text Only | Print | Product List | Glossary On
Versions: 1 2 3 4 5 6 7 8 9 10 11 12 13 14 15 16 17 18 19 20 21 22 23 24 25 26 27 28 29 30 31 32 33 34 35 36 37 38 39 40 41 42 43 44 45 46 47 48 49 50
000
ASUS45 KPSR 130810
RWRAZ

ARIZONA REGIONAL HOURLY WEATHER ROUNDUP
NATIONAL WEATHER SERVICE PHOENIX AZ
100 AM MST SUN JUL 13 2014

NOTE: FAIR INDICATES FEW OR NO CLOUDS BELOW 12,000 FEET WITH NO
SIGNIFICANT WEATHER AND/OR OBSTRUCTIONS TO VISIBILITY.

AZZ001>003-036-130900-
NORTHWEST ARIZONA

CITY           SKY/WX    TMP DP  RH WIND       PRES   REMARKS
BULLHEAD CITY  PTCLDY    95 N/A N/A CALM      29.82R
KINGMAN        CLEAR     78  49  35 SW6       30.04S
$$

AZZ004>008-015-016-018-130900-
NORTH CENTRAL ARIZONA

CITY           SKY/WX    TMP DP  RH WIND       PRES   REMARKS
GRAND CANYON   PTCLDY    59  51  75 CALM      30.33R
WILLIAMS       PTCLDY    66  50  55 SE10      30.39S
PRESCOTT       CLOUDY    77  50  38 SW9       30.20F
FLAGSTAFF      MOCLDY    58  56  93 N5        30.36F
PAYSON         CLOUDY    68  61  77 NE5       30.23S
PAGE           MOCLDY    89  42  19 SW5       30.07S
$$

AZZ009>014-017-130900-
NORTHEAST ARIZONA

CITY           SKY/WX    TMP DP  RH WIND       PRES   REMARKS
WINSLOW        PTCLDY    71  58  63 SW12      30.16F
SAINT JOHNS    PTCLDY    65  57  75 S6        30.23F
WINDOW ROCK    LGT RAIN  66  54  65 W7        30.34R
SHOW LOW       CLOUDY    61  52  72 CALM      30.30S
$$

AZZ023-130900-
GREATER PHOENIX AREA

CITY           SKY/WX    TMP DP  RH WIND       PRES   REMARKS
PHOENIX        CLOUDY    95  60  31 S10       29.87R
BUCKEYE          N/A     91  59  33 E8        29.86F
LUKE AFB       NOT AVBL
DEER VALLEY    CLOUDY    92  57  30 CALM      29.88F
SCOTTSDALE     CLOUDY    94  57  28 CALM      29.91R
MESA-GATEWAY   CLOUDY    88  59  37 SE8       29.93R
$$

AZZ027-028-130900-
SOUTHWEST MARICOPA COUNTY AND PINAL COUNTY

CITY           SKY/WX    TMP DP  RH WIND       PRES   REMARKS
CASA GRANDE    CLOUDY    88  63  42 CALM      29.91S
$$

AZZ503-504-507>509-130900-
SOUTHEAST ARIZONA

CITY           SKY/WX    TMP DP  RH WIND       PRES   REMARKS
TUCSON         PTCLDY    82  59  45 SE5       30.03F
DAVIS-MONTHAN  PTCLDY    80  59  49 E8        30.01R
NOGALES        CLOUDY    67  62  84 SE3       30.09F
SIERRA VISTA   PTCLDY    66  63  90 E6        30.16R
DOUGLAS        MOCLDY    68  65  90 W6        30.12F
SAFFORD        MOCLDY    77  60  55 E5        30.04F
$$

AZZ020-021-025-026-031-130900-
SOUTHWEST ARIZONA

CITY           SKY/WX    TMP DP  RH WIND       PRES   REMARKS
YUMA           MOCLDY    93  45  19 S6        29.80R
$$

CAZ031-033-041-043-047-048-061-130900-
SOUTHERN CALIFORNIA

CITY           SKY/WX    TMP DP  RH WIND       PRES   REMARKS
DOWNTOWN L.A.  PTCLDY    68  61  78 CALM      29.93F
L.A. AIRPORT   MOCLDY    68  62  81 W7        29.94S
SAN DIEGO      MOCLDY    69  62  78 W3        29.96S
BURBANK        PTCLDY    70  59  68 SE3       29.94F
ONTARIO        MOCLDY    71  59  65 W3        29.95S
RIVERSIDE      CLEAR     73  59  61 CALM      29.95S
PALM SPRINGS   CLEAR     90  55  30 NW8       29.84S
EL CENTRO NAS  CLEAR     86  52  30 W3        29.77R
IMPERIAL       CLEAR     83  55  38 W6        29.77S
BLYTHE         CLEAR     96  38  13 W8        29.78F
NEEDLES        CLEAR     94  46  19 SW7       29.82S
$$

NVZ020-UTZ003-130900-
SOUTHERN NEVADA-UTAH

CITY           SKY/WX    TMP DP  RH WIND       PRES   REMARKS
LAS VEGAS      MOCLDY    91  38  15 S9        29.89R
SALT LAKE CITY NOT AVBL
$$

NMZ009-TXZ055-130900-
NEW MEXICO-WEST TEXAS

CITY           SKY/WX    TMP DP  RH WIND       PRES   REMARKS
ALBUQUERQUE    MOCLDY    75  58  55 CALM      30.26S
EL PASO        CLOUDY    74  61  63 E3        30.14F
$$


........................KEY........................
SKY/WX - SKY CONDITION/WEATHER
TMP    - TEMPERATURE IN FAHRENHEIT
DP     - DEW POINT IN FAHRENHEIT
RH     - RELATIVE HUMIDITY IN PERCENT
WIND   - DIRECTION AND SPEED IN MILES PER HOUR (MPH)
VRB    - VARIABLE WIND DIRECTION
PRES   - MEAN SEA LEVEL PRESSURE IN INCHES OF MERCURY
         F - FALLING PRESSURE   R - RISING PRESSURE
         S - STEADY PRESSURE
VSB    - VISIBILITY IN MILES
HX     - HEAT INDEX IN FAHRENHEIT
WCI    - WIND CHILL INDEX IN FAHRENHEIT
TC     - TEMPERATURE IN CELSIUS WHICH IS ALSO KNOWN AS
         TEMPERATURE IN CENTIGRADE
AFB    - AIR FORCE BASE
         LUKE AFB IS LUKE AIR FORCE BASE
         DAVIS-MONTHAN IS DAVIS-MONTHAN AIR FORCE BASE
NAS    - NAVAL AIR STATION
         EL CENTRO NAS IS EL CENTRO NAVAL AIR STATION
N/A    - NOT AVAILABLE



USA.gov is the U.S. government's official web portal to all federal, state and local government web resources and services.